GFSSGP_500_spd_258.txt.gz
Wind_Speed
14 17 14 13 19 22 20 17 15 16 15 12 16 16 17 18 15 13 13 14 17 20 20 20 20 18 16 15 15 14 13 11 14 15 12 9 19 17 17 24 23 23 24 24 25 26 26 24 23
10 13 17 12 15 19 19 20 19 14 14 13 13 13 14 16 14 13 14 15 15 19 23 21 20 18 17 16 13 12 10 10 15 14 12 11 23 28 30 28 21 22 24 25 25 25 22 21 20
6 8 11 14 17 18 20 21 19 14 13 11 12 12 12 12 14 13 13 16 15 14 21 22 21 18 17 17 14 12 13 15 24 26 23 24 32 33 27 23 21 22 24 23 24 21 19 18 17
11 10 8 10 18 18 19 19 17 15 12 11 13 15 15 11 13 13 16 16 17 18 20 20 20 19 17 17 16 13 16 19 28 30 26 25 28 27 26 24 22 25 25 23 21 19 18 16 14
6 11 9 16 19 19 20 19 17 18 14 12 13 14 15 15 11 14 17 19 20 21 24 24 20 18 18 17 17 17 19 31 28 27 26 26 24 23 22 24 27 27 25 21 19 17 15 13 15
2 6 10 14 19 21 19 18 15 19 18 15 12 14 15 13 12 15 15 17 17 20 22 22 19 16 15 16 16 19 23 25 23 22 23 23 23 23 24 28 30 28 23 20 19 16 15 17 17
8 13 12 10 12 19 17 17 17 19 21 20 13 11 15 13 10 14 14 14 16 16 18 19 19 17 14 15 15 18 21 20 19 20 20 23 24 24 26 28 28 24 22 18 17 17 19 20 21
13 9 9 3 8 14 15 15 18 18 21 21 17 10 13 13 9 12 13 13 14 13 14 16 16 16 16 15 16 18 20 21 20 20 22 22 23 25 27 26 24 20 20 17 18 20 20 23 24
11 14 12 10 9 14 14 12 17 19 20 19 20 15 11 13 11 12 12 13 13 13 13 14 15 16 15 18 18 17 19 18 18 19 21 22 22 28 26 24 22 20 18 18 20 19 23 25 24
12 17 11 8 10 11 12 14 14 16 19 18 17 19 15 12 11 11 12 12 13 13 13 13 15 15 15 17 19 18 19 20 18 20 22 23 24 27 24 22 21 19 19 19 21 21 24 23 22
4 14 14 13 11 10 9 14 13 12 16 17 15 19 20 14 12 10 13 13 12 13 15 15 15 15 14 16 19 18 17 18 20 21 24 25 27 24 21 20 20 19 19 20 21 22 23 22 22
9 12 17 14 12 8 8 10 10 11 12 16 13 16 21 17 14 10 10 13 14 14 15 15 15 14 15 15 19 18 17 17 19 22 23 27 26 23 19 18 18 19 18 21 22 23 21 21 21
6 7 11 10 11 11 7 9 6 8 11 12 14 12 17 18 15 11 9 12 12 13 14 14 15 14 13 15 16 17 16 16 19 24 26 27 25 22 18 16 16 19 17 20 23 22 21 21 19
5 6 6 8 14 8 1 5 4 7 10 11 12 12 12 16 14 12 14 16 15 12 15 17 16 16 16 16 14 15 16 17 24 26 28 25 23 21 18 16 14 17 17 19 22 21 19 18 14
4 5 6 9 16 5 7 5 6 8 9 10 10 10 10 13 15 13 14 16 16 15 13 15 18 21 18 16 16 16 17 23 30 29 26 23 21 19 18 16 15 16 17 19 22 20 18 17 12
8 9 6 3 13 12 9 6 6 8 9 6 8 7 9 11 13 14 12 13 15 15 15 14 17 19 18 21 20 18 21 29 30 28 25 21 19 18 16 15 17 17 19 20 20 19 16 15 11
15 9 9 10 16 12 7 8 7 7 6 11 8 7 9 9 12 12 12 13 13 13 12 13 15 17 22 20 20 20 25 28 27 27 24 19 17 17 15 13 15 18 20 20 20 17 15 14 10
15 13 13 10 15 15 15 10 8 7 7 6 9 7 8 10 10 11 11 11 12 13 13 13 17 18 19 20 20 22 26 26 26 24 22 17 15 14 13 12 14 17 19 21 19 17 15 12 10
17 15 19 12 15 14 10 7 12 11 12 10 9 11 8 8 10 9 10 11 11 11 11 11 14 18 17 19 21 23 26 25 24 21 17 14 11 11 9 11 11 15 14 19 19 16 14 11 9
17 21 21 27 23 20 22 21 14 13 12 13 12 10 9 6 9 11 9 11 11 10 12 12 10 13 16 18 21 25 27 26 23 19 16 11 9 9 8 8 10 11 13 13 17 16 13 11 9
22 27 27 27 30 25 29 24 19 18 16 15 18 15 12 12 9 11 15 13 11 12 12 13 15 13 14 16 20 23 22 21 22 19 17 14 11 8 7 6 7 9 12 13 13 17 15 13 10
24 28 28 29 28 28 27 29 26 28 21 16 17 19 17 15 14 11 12 17 17 16 16 15 14 16 15 16 19 21 22 22 22 20 18 16 13 10 9 8 8 7 9 14 16 17 17 16 14
29 30 30 29 28 29 26 25 21 23 26 19 19 20 18 18 17 16 15 16 22 21 20 19 18 16 17 19 19 20 20 20 20 19 18 16 14 13 12 12 12 12 11 12 18 20 20 20 18
33 33 33 32 30 33 28 34 25 21 17 18 20 16 13 17 20 19 17 18 19 20 22 21 20 20 20 19 20 21 19 17 17 17 16 16 15 15 16 16 15 15 15 15 15 21 22 20 19
32 34 36 38 39 35 33 36 27 23 23 23 29 25 22 20 23 21 20 17 18 15 20 21 20 20 22 23 21 21 22 21 19 19 17 16 15 16 17 16 18 18 19 19 19 19 22 24 22
25 31 36 43 43 41 43 39 32 29 24 25 28 27 29 25 26 25 24 20 21 21 20 22 23 22 23 23 24 24 22 24 23 20 19 17 16 16 17 17 17 17 19 21 22 22 22 24 24
22 27 31 36 42 46 47 42 35 30 30 32 36 30 33 29 26 27 25 25 24 24 23 22 25 26 25 26 27 25 26 24 24 23 22 20 20 17 17 16 16 18 20 22 24 25 25 23 24
26 26 27 30 34 41 48 49 45 39 36 44 37 38 37 30 29 30 30 27 26 25 25 26 26 26 30 29 29 28 27 27 29 28 24 23 23 21 20 18 18 20 21 22 25 25 25 24 24
33 32 29 27 32 37 37 43 49 47 44 42 45 40 43 33 35 31 28 30 30 33 34 28 27 29 27 31 30 29 28 28 29 28 26 24 24 25 23 22 20 22 22 24 23 25 25 25 26
32 34 35 34 32 33 38 33 39 51 52 45 43 45 46 40 36 32 36 38 34 31 33 32 29 30 30 29 31 32 32 31 29 28 27 28 26 27 27 27 25 24 25 26 25 27 27 27 25

GFSSGP_500_spd_261.txt.gz
Wind_Speed
17 14 13 12 15 22 19 16 15 16 18 17 18 19 19 18 19 18 15 14 17 19 18 20 21 21 21 19 17 15 14 13 12 16 12 17 20 23 24 23 23 26 27 26 26 25 24 23 20
11 17 16 14 19 21 19 15 14 15 16 15 15 16 15 16 19 18 20 16 16 17 17 18 18 20 20 18 15 13 14 15 18 16 10 21 19 22 24 24 26 26 27 25 24 23 20 17 14
7 11 14 15 20 21 20 17 13 14 15 14 15 13 14 14 18 19 18 19 18 16 16 18 18 18 18 18 16 16 18 17 15 13 14 19 25 28 26 24 26 26 25 23 21 19 18 14 12
10 11 14 16 19 19 21 19 14 14 16 15 16 14 14 16 15 19 19 18 19 17 16 16 16 18 17 17 14 16 23 24 18 21 26 33 28 26 23 24 26 25 23 21 20 16 14 14 15
14 11 13 17 16 18 22 20 15 13 14 15 15 17 16 17 17 19 21 21 21 20 18 17 17 19 17 15 16 19 28 28 26 27 28 32 27 26 25 26 25 23 22 19 16 13 15 15 15
9 10 11 15 15 15 21 20 18 15 14 16 16 15 16 17 16 18 19 23 22 22 21 20 20 19 18 17 22 27 26 28 26 25 24 24 24 26 28 27 24 23 19 16 14 16 17 17 18
12 12 10 11 14 13 19 17 17 17 16 14 16 13 16 17 15 15 18 20 22 19 17 17 17 19 19 19 24 27 26 24 24 23 23 23 26 28 28 25 23 19 16 15 16 17 19 21 22
16 6 6 12 13 13 17 15 15 17 17 16 14 13 13 16 16 14 15 16 17 16 14 14 16 17 20 20 20 19 21 22 23 23 23 26 28 29 26 23 20 17 16 16 18 20 22 22 24
8 10 13 12 11 13 17 13 14 15 15 17 15 15 12 13 16 15 15 15 14 14 13 13 14 17 19 21 20 19 19 20 21 23 24 28 27 26 23 20 17 17 16 18 21 22 23 24 24
12 11 10 12 11 13 15 14 12 14 14 18 16 14 13 12 11 12 13 15 15 15 14 13 13 15 19 21 22 21 21 23 23 23 25 27 25 23 20 18 16 17 18 22 23 22 23 21 20
13 7 9 10 12 11 10 14 14 11 13 15 19 16 14 12 10 10 11 11 13 15 15 15 14 15 19 19 22 22 22 23 24 24 25 27 24 21 19 17 17 19 21 23 22 23 20 19 17
16 10 9 10 10 9 7 11 12 12 10 12 17 17 16 15 12 9 9 11 12 14 16 15 14 15 19 20 21 22 22 24 23 24 27 27 23 20 18 17 18 18 21 22 22 22 18 18 17
7 13 12 8 8 8 7 8 8 9 8 10 13 16 16 16 13 9 8 9 10 14 16 16 14 15 17 21 19 20 21 23 23 24 27 25 22 20 18 18 19 18 20 21 22 20 19 17 16
9 10 11 7 6 5 2 4 7 4 7 8 12 13 14 15 14 12 12 11 12 13 15 16 16 15 17 19 19 19 20 24 25 26 26 23 21 19 18 18 19 18 20 22 22 19 18 17 14
10 10 6 12 8 5 5 9 7 2 5 7 12 13 12 14 15 14 11 10 11 13 14 17 16 17 17 17 19 18 21 26 28 28 25 22 19 19 18 19 18 20 21 23 23 21 20 17 14
13 9 12 12 18 8 9 9 8 5 4 7 10 12 12 12 13 13 11 12 12 14 16 17 18 19 17 18 19 18 22 28 30 28 24 21 18 17 18 20 18 21 20 21 20 19 18 15 14
8 10 9 8 17 16 10 7 8 5 6 10 7 10 11 10 13 13 11 9 11 13 16 18 19 15 20 19 18 20 27 28 29 26 24 20 16 15 15 20 20 21 21 20 19 17 16 13 12
11 13 16 13 16 15 9 9 6 5 5 8 10 10 11 10 10 14 12 10 8 12 15 17 18 21 19 19 20 24 27 28 26 25 22 19 16 13 15 19 20 21 21 20 18 17 15 13 10
16 14 17 15 17 17 10 8 9 7 5 6 6 8 11 12 10 10 13 11 9 10 14 17 20 22 23 20 23 28 28 27 26 22 19 17 14 12 11 16 20 20 20 20 19 17 15 13 9
17 17 22 20 22 19 16 14 11 11 13 10 8 8 8 12 14 13 13 13 10 8 11 16 18 18 20 21 23 27 29 29 25 21 18 16 13 11 10 10 18 19 20 19 19 18 16 14 11
17 19 19 23 23 24 22 19 14 14 9 12 12 11 11 12 14 15 14 15 13 10 12 14 16 18 19 21 22 23 24 26 25 22 18 15 13 10 9 8 10 18 19 19 19 19 17 15 13
21 20 20 20 24 23 27 24 23 21 16 14 15 16 15 13 13 14 16 13 15 15 13 13 15 17 19 20 21 26 26 26 26 24 20 16 14 12 10 9 8 8 17 20 19 19 19 17 15
24 25 23 23 25 28 24 25 21 22 15 15 16 17 20 20 19 18 17 20 21 18 18 17 16 18 18 20 23 27 27 25 25 22 21 18 15 14 12 11 10 11 11 15 22 23 22 20 19
25 26 26 28 27 30 26 27 21 17 14 18 20 23 24 25 24 24 23 23 23 23 23 22 21 19 21 22 23 26 27 26 24 23 22 20 18 16 15 14 15 16 16 17 18 24 25 24 24
25 24 28 31 32 29 31 30 25 23 24 19 22 28 27 26 26 27 26 25 22 19 23 24 24 24 23 23 25 25 25 24 25 25 23 21 20 19 18 18 18 19 19 21 21 22 25 26 25
29 28 27 29 31 32 34 32 30 31 33 30 26 31 31 29 28 28 28 28 26 24 22 25 26 26 26 27 26 27 26 25 26 25 24 23 21 21 19 18 18 20 20 21 24 25 25 26 29
28 29 29 29 31 32 35 35 34 33 35 36 31 34 36 37 34 29 33 32 29 29 27 25 28 29 29 30 31 30 29 28 29 28 27 24 23 23 22 21 21 21 20 20 23 27 29 28 28
32 30 30 28 28 29 30 31 37 38 37 38 40 39 38 40 33 32 31 33 31 30 32 33 31 31 32 32 32 32 33 32 32 32 29 26 25 23 23 24 23 21 21 20 21 25 27 28 28
33 32 32 31 31 31 30 27 28 31 38 41 40 45 45 42 38 37 34 35 35 36 35 36 35 33 33 34 34 33 32 33 35 33 32 30 29 26 25 25 26 24 22 22 22 24 25 26 28
36 37 36 36 35 34 34 29 28 27 30 33 44 45 49 48 46 41 36 38 39 38 39 35 33 33 33 34 37 36 35 34 34 33 33 34 32 31 29 29 28 28 25 24 26 26 26 26 28

GFSSGP_500_spd_267.txt.gz
Wind_Speed
20 21 17 21 21 16 16 17 17 18 16 14 13 16 18 21 15 16 17 19 20 20 19 19 18 16 17 17 15 13 14 14 13 15 20 20 20 20 24 27 25 25 24 23 20 18 17 15 14
18 20 18 19 28 7 15 13 14 16 15 14 12 12 16 13 20 16 17 19 19 19 18 17 18 16 16 14 13 12 13 13 15 17 19 22 24 22 25 26 24 24 22 19 17 15 15 14 14
18 21 18 18 12 12 12 15 13 14 15 14 13 12 14 15 18 18 17 20 19 17 17 16 16 14 14 14 13 11 13 18 13 12 19 24 27 24 24 24 23 22 19 16 14 14 14 15 15
20 23 21 18 14 12 14 14 14 14 15 14 12 11 13 16 18 19 19 19 19 17 16 15 14 12 11 13 13 12 11 15 9 16 26 27 25 24 24 23 21 18 16 14 14 16 16 15 16
19 13 21 17 15 12 14 14 13 13 14 14 13 10 11 13 15 17 18 19 18 17 17 15 14 12 12 13 14 13 12 14 11 19 30 25 25 25 23 20 18 16 15 16 16 17 17 17 17
14 20 19 14 13 13 14 13 11 11 12 14 14 12 10 12 14 15 16 17 16 15 15 14 13 12 14 14 16 10 10 16 18 29 28 25 24 23 21 18 15 14 16 17 19 19 19 19 19
18 10 12 12 12 13 16 11 9 10 9 10 12 12 12 15 17 15 15 16 15 13 13 12 10 16 17 20 21 18 22 32 32 28 22 25 23 22 18 16 15 15 16 20 20 20 21 22 21
14 16 13 12 10 12 15 13 8 7 8 9 10 11 9 12 17 18 18 16 14 13 12 12 15 23 25 23 21 21 22 24 24 23 23 26 23 20 16 15 16 16 19 20 20 20 22 22 22
11 14 11 7 9 10 13 13 11 7 7 8 10 11 9 8 13 15 16 15 14 13 12 16 21 20 22 22 18 19 19 20 22 24 25 24 22 18 15 17 18 19 19 20 20 21 22 21 22
9 5 6 9 10 9 9 12 12 11 6 8 8 9 11 8 8 9 10 12 13 14 13 14 16 18 19 17 19 18 19 19 21 26 24 22 20 17 16 18 19 18 18 20 21 22 21 19 20
10 9 7 6 9 8 7 9 12 12 9 8 10 6 7 8 8 9 8 7 10 12 13 14 15 16 16 16 17 19 19 21 24 24 23 20 18 17 17 18 19 18 20 19 21 21 20 17 18
5 4 4 4 6 6 6 7 10 10 11 8 6 7 5 7 7 7 7 7 8 10 12 12 16 15 16 15 16 20 21 22 24 24 21 18 17 17 17 18 19 19 20 19 18 21 18 17 17
4 4 4 3 4 5 5 5 6 7 8 9 7 6 5 5 7 7 8 9 8 9 10 13 14 15 16 15 17 19 21 23 25 23 20 18 17 18 17 18 19 19 19 20 19 18 17 14 16
2 8 4 2 1 4 8 3 3 3 4 6 6 6 6 6 6 6 6 7 9 9 11 13 15 15 16 16 17 18 20 24 26 23 20 18 17 18 18 18 19 20 21 20 19 18 16 13 13
5 6 10 8 6 5 3 3 2 1 1 2 4 5 5 8 6 6 8 7 9 10 11 13 15 17 16 15 15 16 19 23 26 23 19 17 17 18 19 18 19 20 21 21 21 18 16 12 12
4 2 9 10 7 2 3 7 4 4 3 2 0 2 3 5 6 6 7 7 8 11 12 12 14 16 17 17 15 15 17 22 26 23 20 18 18 19 19 18 18 20 21 21 21 18 15 13 12
7 10 12 11 3 5 1 3 2 4 2 2 2 2 0 1 2 3 4 8 7 8 13 13 13 16 19 19 18 17 18 23 26 22 19 17 17 19 19 18 15 16 19 19 19 18 16 11 10
12 9 12 10 8 7 10 8 3 3 5 1 3 4 4 4 4 3 3 4 8 8 9 13 13 16 17 19 19 19 20 25 26 23 19 16 16 19 19 18 15 14 16 17 17 16 13 11 8
16 13 10 15 13 11 11 7 6 3 2 2 4 5 7 8 7 7 6 5 6 11 11 11 14 14 17 20 19 20 24 27 26 23 19 16 16 19 19 19 15 14 13 15 15 14 13 11 7
18 18 11 18 14 13 14 13 9 7 3 3 3 5 7 12 10 10 10 8 6 9 12 14 14 13 17 18 18 20 26 28 26 22 18 16 15 16 19 19 17 14 13 14 14 13 12 11 9
16 19 21 17 16 16 17 4 13 14 10 9 10 9 9 10 13 13 12 11 11 10 13 15 16 16 16 16 16 20 26 27 24 22 20 17 15 14 15 18 18 16 14 12 12 10 10 8 8
16 24 16 16 16 14 19 6 9 19 17 15 16 16 14 13 13 15 17 15 14 14 13 15 16 16 16 15 18 23 27 28 27 24 22 20 17 15 13 14 18 18 18 13 14 13 10 12 9
25 20 18 20 18 21 24 19 10 16 22 23 23 23 23 16 15 16 17 20 19 16 16 16 18 19 17 17 20 25 26 28 27 25 22 20 17 15 14 13 13 16 19 18 19 16 18 16 16
23 22 22 22 22 24 20 19 13 16 16 24 31 11 26 26 21 19 20 20 23 20 20 18 18 20 22 22 22 24 28 28 28 26 24 22 20 17 15 14 15 15 14 14 17 19 23 22 22
17 17 16 14 15 17 13 16 15 25 37 33 32 28 27 25 27 26 23 23 24 24 24 22 21 21 23 26 26 26 28 29 30 29 27 25 23 21 19 18 19 18 17 16 17 19 20 22 24
18 19 17 14 10 10 26 17 14 35 37 35 29 31 29 30 29 29 28 27 26 27 25 26 26 27 25 26 28 30 31 31 32 32 32 30 28 26 25 24 22 21 20 20 20 21 23 24 25
25 19 27 23 22 23 17 16 21 32 33 31 31 32 33 31 34 33 33 32 30 28 29 29 28 30 31 30 29 30 30 31 34 35 35 33 32 31 30 29 26 25 24 23 23 23 24 25 26
26 27 23 22 25 21 15 18 18 24 36 38 26 36 37 39 38 36 37 37 34 33 30 28 29 28 31 34 34 33 32 31 31 34 35 35 36 35 33 32 29 28 27 26 25 23 23 23 23
28 26 28 28 29 20 17 17 26 35 40 36 32 36 40 42 46 47 43 43 41 39 38 33 30 31 29 33 35 37 36 35 34 34 36 36 37 37 36 33 32 30 29 28 26 25 23 22 22
30 30 31 31 27 28 33 28 26 41 43 45 40 39 39 39 46 50 52 47 48 45 44 42 37 33 32 31 37 37 41 40 38 35 34 35 36 37 38 36 35 33 31 30 29 28 27 23 22

GFSSGP_500_spd_270.txt.gz
Wind_Speed
17 21 25 19 24 23 18 18 15 16 18 13 5 20 11 15 17 18 19 19 19 22 21 20 19 18 17 17 16 15 14 14 15 19 21 20 21 23 24 24 24 23 21 19 18 18 17 17 16
19 23 27 21 22 15 16 8 12 14 15 10 9 8 10 9 15 15 20 21 19 19 18 18 16 16 15 13 13 15 13 13 15 19 19 20 22 23 23 23 22 20 19 17 17 18 17 18 18
18 25 21 25 13 11 14 14 13 13 12 12 11 9 8 14 13 14 19 20 19 18 16 16 15 14 14 12 11 12 13 15 16 20 23 22 23 23 22 20 20 18 17 17 18 19 18 18 19
11 26 31 14 12 13 20 17 16 14 12 8 10 11 11 12 12 11 15 16 19 16 14 13 12 11 11 11 9 8 19 11 12 17 25 21 23 22 20 19 17 17 18 17 19 19 18 20 21
18 20 25 12 16 17 19 15 8 12 9 15 14 12 11 11 12 12 14 14 17 15 14 11 10 8 10 10 9 10 12 11 22 28 21 23 22 21 18 17 17 17 18 19 19 20 20 20 20
21 14 19 15 18 20 17 14 13 12 12 14 13 11 12 14 13 12 13 13 14 13 11 9 8 8 10 9 10 10 14 11 21 25 23 22 20 18 16 16 18 18 19 20 20 21 22 20 21
21 19 10 14 16 18 17 14 11 11 11 12 13 14 11 12 14 13 12 12 14 12 10 8 8 13 13 11 7 12 12 20 22 24 25 21 18 17 16 17 19 19 19 21 22 21 22 20 20
8 15 8 4 12 15 17 13 10 9 9 8 10 13 11 10 12 12 12 10 12 11 7 7 12 16 19 18 22 23 25 27 29 25 23 19 16 14 17 17 18 19 21 22 22 21 20 20 20
17 10 7 10 13 11 14 15 10 7 7 7 7 9 11 10 12 12 10 10 10 10 11 18 18 20 20 24 23 22 25 25 21 24 21 17 14 14 17 17 19 20 21 22 22 21 19 19 18
20 20 11 9 9 10 12 13 14 9 6 7 7 6 6 6 7 10 9 8 7 8 13 15 18 17 18 17 19 16 18 21 23 22 19 16 14 15 15 18 18 19 20 21 21 22 18 18 16
13 9 7 9 10 12 12 11 18 9 7 5 6 6 3 4 3 4 7 8 7 7 10 13 15 13 12 13 15 14 17 22 24 21 18 16 13 15 16 18 18 20 21 19 21 19 19 17 16
6 4 6 7 10 11 10 9 10 12 9 4 3 3 2 1 1 0 2 5 7 6 8 9 11 11 10 11 11 13 18 23 22 19 16 14 13 14 15 16 18 19 21 17 17 20 14 17 18
0 2 4 6 7 11 11 7 6 8 9 8 5 2 3 2 2 2 2 2 4 5 7 7 9 9 9 10 12 13 16 20 19 18 15 14 14 13 15 16 17 17 17 19 16 15 14 13 19
7 3 1 2 5 10 10 7 7 6 7 8 8 6 3 2 2 2 2 3 4 4 6 8 10 8 10 9 12 13 17 19 19 16 14 14 13 13 14 14 17 18 17 18 16 16 13 11 16
8 6 4 6 7 7 7 3 8 7 5 6 7 7 6 4 2 1 4 4 6 6 7 8 9 9 10 10 11 12 15 19 19 16 13 13 13 13 14 15 16 17 16 16 15 15 13 12 13
6 6 9 6 9 3 7 6 4 7 4 3 5 6 5 5 4 2 3 5 7 9 8 8 9 10 11 12 12 12 13 19 19 17 14 13 13 13 14 14 15 17 17 16 15 14 13 14 10
12 12 16 8 7 2 6 7 9 9 5 3 4 4 4 3 2 3 2 4 7 10 11 9 8 10 11 12 11 12 14 18 21 18 15 13 14 14 13 13 12 14 16 15 14 13 14 11 11
6 5 12 8 6 5 5 4 3 4 5 1 3 4 3 4 4 3 1 1 5 9 13 12 10 11 13 13 13 12 13 18 22 19 15 13 14 14 13 13 13 13 13 13 13 13 12 11 9
15 5 6 13 11 6 6 9 4 3 1 1 1 1 5 6 7 7 5 3 3 6 8 13 12 12 13 15 15 14 14 17 23 21 17 14 13 14 13 10 10 10 11 14 12 11 9 10 8
22 17 5 23 16 10 7 11 11 7 7 7 5 5 5 4 7 9 9 7 5 5 8 10 12 12 12 15 16 16 17 17 23 22 18 14 13 14 14 13 9 8 9 8 9 10 10 8 6
20 17 17 14 21 7 13 14 7 10 10 12 14 10 9 10 9 7 10 9 9 7 6 9 11 11 11 14 14 15 17 20 23 22 19 16 14 14 15 15 14 11 9 8 7 5 4 2 4
14 24 26 19 19 12 5 7 18 11 17 13 15 17 14 14 16 14 10 10 10 10 8 9 11 11 12 13 14 14 17 23 26 24 22 19 15 13 13 14 15 16 14 10 10 9 8 7 7
20 22 14 18 17 18 16 12 6 19 16 23 22 17 13 20 16 15 18 13 12 12 12 11 12 12 13 14 15 14 16 22 26 24 22 20 17 15 12 11 14 17 17 15 16 14 16 14 14
23 19 19 18 19 20 15 14 7 18 20 17 18 23 10 16 9 15 16 19 17 13 16 16 14 16 17 16 16 16 19 22 25 24 22 21 20 17 14 12 12 11 12 14 18 17 18 21 20
17 15 11 9 11 13 10 9 16 23 30 29 25 18 22 25 10 8 19 16 22 20 18 18 19 19 19 20 20 20 21 23 24 25 25 25 21 19 17 15 14 13 14 13 14 16 17 20 21
15 14 11 12 7 9 14 12 22 28 34 35 39 39 33 33 34 29 28 18 18 23 23 22 19 24 22 22 23 25 24 24 26 27 28 28 26 24 22 20 19 18 17 18 19 19 22 23 26
20 16 22 18 19 19 10 14 25 30 35 38 42 42 39 34 35 33 33 34 29 23 23 27 25 23 27 27 27 25 27 28 28 29 31 30 31 30 27 27 25 25 22 22 22 23 24 24 25
22 22 17 15 13 12 13 14 23 31 31 39 43 47 40 34 36 36 36 35 33 32 29 28 26 30 28 29 29 31 31 30 31 33 33 33 34 34 32 30 30 28 27 25 25 24 24 24 25
26 23 23 22 24 19 12 13 20 27 35 43 48 45 38 37 33 36 38 41 37 37 36 35 35 33 28 29 30 32 34 36 33 32 32 33 35 36 36 31 32 32 29 28 26 26 26 24 25
25 30 30 27 24 19 21 23 28 27 30 38 46 50 53 39 36 36 36 42 43 44 44 43 42 41 36 30 31 31 35 37 39 36 35 34 35 36 37 35 32 34 32 30 29 28 28 27 24

GFSSGP_500_spd_273.txt.gz
Wind_Speed
25 18 28 24 21 26 19 16 11 17 17 14 21 15 17 14 16 21 20 25 27 26 21 19 20 17 15 13 14 14 16 15 19 18 19 21 23 24 24 23 21 18 17 17 18 17 20 21 21
20 24 22 23 21 15 22 17 15 15 18 18 12 14 15 14 19 17 18 23 24 22 20 18 17 14 14 12 12 14 13 17 19 18 20 22 22 22 21 19 17 15 17 19 19 21 22 22 21
18 25 15 23 15 18 19 16 15 17 16 16 14 13 15 16 15 17 18 19 21 19 18 16 13 12 11 11 11 13 14 16 18 19 20 21 21 20 18 17 16 17 17 20 22 23 24 24 23
17 18 13 21 17 16 19 16 15 10 14 15 15 16 18 20 17 15 14 16 18 18 16 15 12 11 10 12 12 15 15 16 20 24 19 20 20 17 15 15 15 16 20 21 23 25 25 26 26
16 15 19 13 24 17 19 12 24 17 15 14 17 15 16 17 18 16 15 17 17 17 15 13 12 11 10 10 11 15 14 17 20 22 20 20 18 15 14 14 15 18 21 22 25 25 24 24 25
17 18 18 14 17 20 17 15 19 18 18 16 18 16 14 19 15 17 13 15 13 12 12 11 10 9 9 9 11 15 17 28 23 21 20 19 16 15 13 15 17 19 22 24 25 24 23 23 24
16 24 15 15 17 13 14 13 13 18 18 19 18 15 13 16 15 16 13 13 13 11 10 8 9 9 9 10 11 18 20 23 19 20 19 17 15 14 16 16 17 20 22 23 23 22 22 21 22
10 17 15 16 15 16 17 15 14 16 17 17 17 18 14 12 14 16 13 12 10 8 7 9 11 14 12 8 13 20 16 16 26 21 17 16 13 15 15 15 18 21 22 22 22 21 20 21 22
28 22 15 18 16 18 18 17 11 14 15 17 16 16 18 14 12 13 13 10 10 9 11 13 18 22 25 24 19 21 26 22 23 18 15 14 14 13 14 15 18 22 23 23 21 20 19 20 22
16 18 19 20 17 18 16 11 10 11 13 15 14 12 14 11 11 12 12 8 10 13 15 20 20 20 19 19 26 31 23 22 21 16 13 13 13 11 15 18 21 22 22 21 21 20 17 16 22
14 13 17 17 19 18 17 18 20 12 11 12 11 11 10 10 8 10 9 10 9 11 11 14 16 14 14 13 16 19 18 22 18 14 11 10 12 13 16 19 21 20 20 17 19 19 18 19 18
11 9 13 15 16 17 17 16 18 17 12 10 9 7 8 7 7 8 7 9 11 7 8 10 11 11 11 9 10 14 20 20 16 13 11 11 12 13 15 16 19 18 16 17 17 18 12 22 20
8 8 11 11 12 14 15 12 12 14 15 12 9 6 6 7 5 4 7 7 8 9 7 8 7 9 10 10 10 13 19 18 15 13 11 12 11 13 15 16 19 16 14 14 15 17 10 12 21
8 6 7 6 9 11 11 9 9 9 11 11 12 10 8 6 5 5 5 7 9 7 7 6 8 8 10 12 11 13 18 18 14 12 11 11 11 11 12 15 17 16 12 12 11 16 13 11 16
3 9 4 5 7 8 8 5 11 6 8 9 10 12 11 9 7 3 4 7 9 7 8 8 7 9 8 11 11 13 15 14 14 11 10 10 9 10 13 15 12 12 12 9 11 11 14 11 11
7 3 7 10 9 9 7 11 9 8 7 7 8 9 8 9 10 10 4 3 7 6 7 6 7 9 8 10 11 10 13 15 13 10 9 9 8 8 10 11 12 12 11 10 11 11 9 11 11
17 8 7 1 4 4 4 5 6 9 7 6 5 6 7 7 8 10 8 3 3 6 4 5 7 9 7 9 9 9 10 16 15 12 8 8 8 8 8 8 10 10 10 11 11 11 9 10 9
6 6 9 7 4 2 5 3 4 7 7 5 5 5 6 8 8 9 9 7 0 4 6 7 5 8 9 8 9 9 10 13 17 14 10 8 8 8 8 7 8 11 11 11 12 10 9 8 10
10 6 10 11 8 10 7 5 1 3 2 5 8 9 9 7 6 7 7 8 6 0 5 9 9 6 8 10 10 10 10 12 17 16 13 10 9 9 9 5 5 6 10 12 10 9 7 7 8
14 11 9 15 11 4 3 6 1 5 6 0 3 6 8 8 8 5 4 4 5 5 3 5 9 8 9 9 10 11 10 10 15 18 16 11 10 10 11 8 6 5 8 7 4 3 3 2 4
18 21 18 20 14 7 7 4 9 6 10 10 6 7 7 4 7 8 5 3 3 3 3 4 7 8 8 10 11 11 12 11 14 20 20 15 12 12 12 12 10 7 6 4 4 2 1 2 4
17 19 20 21 21 11 17 9 8 10 11 14 13 8 13 15 11 8 6 6 4 3 3 2 6 9 9 9 11 13 14 15 17 21 22 17 14 13 13 14 13 13 10 7 7 5 5 5 7
19 12 10 13 15 17 15 12 4 14 14 14 23 22 16 14 16 22 12 4 5 6 6 4 5 7 8 10 10 12 13 16 20 20 22 18 15 14 13 12 15 14 13 14 12 12 12 9 12
19 17 14 15 15 11 7 10 9 17 18 19 17 20 23 14 22 18 16 11 12 8 10 11 9 8 9 11 12 12 12 13 18 21 22 20 19 16 14 11 10 9 9 12 13 14 16 14 17
21 20 15 14 8 4 3 6 9 16 22 29 25 28 20 29 30 19 13 8 18 14 9 12 15 13 13 12 14 17 16 13 17 20 22 22 21 19 18 15 12 10 9 9 11 11 13 14 17
15 13 15 15 11 8 2 17 18 21 27 30 33 35 37 34 35 30 33 29 17 21 8 13 21 20 19 17 18 17 18 19 18 20 23 25 24 23 21 19 17 15 14 12 14 16 17 18 19
13 14 10 8 16 16 7 10 17 21 26 30 33 35 37 40 41 41 37 31 27 23 20 27 27 11 20 23 23 22 21 20 21 24 24 25 26 27 27 25 23 21 20 19 18 19 20 19 20
15 15 12 14 18 23 7 12 17 23 31 36 39 38 37 38 40 39 44 42 34 29 26 30 33 21 22 27 25 27 27 25 24 22 26 28 27 29 29 30 28 27 26 24 24 22 23 21 22
19 19 19 19 18 21 19 7 11 19 28 35 38 39 39 39 41 39 40 34 36 39 35 35 38 34 28 22 30 30 30 30 30 29 27 28 31 33 32 31 32 31 30 29 27 27 26 24 23
22 22 25 23 21 22 22 9 18 26 30 36 38 38 45 49 51 47 41 34 28 32 41 42 43 41 36 31 30 32 30 34 33 33 31 33 31 31 34 33 34 35 35 33 30 28 28 27 26